BSAT-3B

Last updated on Thu Jul 03 2025 00:02:45 GMT+0000 (Coordinated Universal Time)

1 37207U 10056B 25183.62414845 -.00000343 00000+0 00000+0 0 9993 2 37207 0.0570 235.1337 0002051 294.8434 85.4529 1.00271614 48590
UTC large
Height (km)
Speed (km/s)
/
Latitude / Longitude
Inclination (degrees)
Orbital Period (minutes)
Azimuth
Elevation
Range (km)
Doppler Factor

Next 0 passes for location: London (51.5072 / 0.1276)

Sorry there are no passes over London.